Time,TemperatureF,DewpointF,PressureIn,WindDirection,WindDirectionDegrees,WindSpeedMPH,WindSpeedGustMPH,Humidity,HourlyPrecipIn,Conditions,Clouds,dailyrainin,SoftwareType,DateUTC
2013-04-10 00:03:00,51.0,-99.9,-100.00,South,188,5.0,-999.0,-999,-99.99,,,-99.99,,2013-04-10 07:03:00,
2013-04-10 00:12:00,51.0,-99.9,-100.00,South,188,5.0,-999.0,-999,-99.99,,,-99.99,,2013-04-10 07:12:00,
2013-04-10 00:20:00,51.0,-99.9,-100.00,SW,217,2.0,-999.0,-999,-99.99,,,-99.99,,2013-04-10 07:20:00,
2013-04-10 01:02:00,51.0,-99.9,-100.00,SW,217,2.0,-999.0,-999,-99.99,,,-99.99,,2013-04-10 08:02:00,
2013-04-10 01:12:00,51.0,-99.9,-100.00,SW,217,2.0,-999.0,-999,-99.99,,,-99.99,,2013-04-10 08:12:00,
2013-04-10 01:20:00,50.0,-99.9,-100.00,WSW,245,0.0,-999.0,-999,-99.99,,,-99.99,,2013-04-10 08:20:00,
2013-04-10 02:03:00,50.0,-99.9,-100.00,WSW,245,0.0,-999.0,-999,-99.99,,,-99.99,,2013-04-10 09:03:00,
2013-04-10 02:13:00,50.0,-99.9,-100.00,WSW,245,0.0,-999.0,-999,-99.99,,,-99.99,,2013-04-10 09:13:00,
2013-04-10 02:20:00,51.0,-99.9,-100.00,South,185,5.0,-999.0,-999,-99.99,,,-99.99,,2013-04-10 09:20:00,
2013-04-10 03:03:00,51.0,-99.9,-100.00,South,185,5.0,-999.0,-999,-99.99,,,-99.99,,2013-04-10 10:03:00,
2013-04-10 03:13:00,51.0,-99.9,-100.00,South,185,5.0,-999.0,-999,-99.99,,,-99.99,,2013-04-10 10:13:00,
2013-04-10 03:20:00,51.0,-99.9,-100.00,SSW,199,2.0,-999.0,-999,-99.99,,,-99.99,,2013-04-10 10:20:00,
2013-04-10 04:03:00,51.0,-99.9,-100.00,SSW,199,2.0,-999.0,-999,-99.99,,,-99.99,,2013-04-10 11:03:00,
2013-04-10 04:12:00,51.0,-99.9,-100.00,SSW,199,2.0,-999.0,-999,-99.99,,,-99.99,,2013-04-10 11:12:00,
2013-04-10 04:20:00,52.0,-99.9,-100.00,South,185,7.0,-999.0,-999,-99.99,,,-99.99,,2013-04-10 11:20:00,
2013-04-10 05:03:00,52.0,-99.9,-100.00,South,185,7.0,-999.0,-999,-99.99,,,-99.99,,2013-04-10 12:03:00,
2013-04-10 05:12:00,52.0,-99.9,-100.00,South,185,7.0,-999.0,-999,-99.99,,,-99.99,,2013-04-10 12:12:00,
2013-04-10 05:20:00,51.0,-99.9,-100.00,South,183,5.0,-999.0,-999,-99.99,,,-99.99,,2013-04-10 12:20:00,
2013-04-10 06:02:00,51.0,-99.9,-100.00,South,183,5.0,-999.0,-999,-99.99,,,-99.99,,2013-04-10 13:02:00,
2013-04-10 06:12:00,51.0,-99.9,-100.00,South,183,5.0,-999.0,-999,-99.99,,,-99.99,,2013-04-10 13:12:00,
2013-04-10 06:20:00,49.0,-99.9,-100.00,South,185,2.0,-999.0,-999,-99.99,,,-99.99,,2013-04-10 13:20:00,
2013-04-10 07:02:00,49.0,-99.9,-100.00,South,185,2.0,-999.0,-999,-99.99,,,-99.99,,2013-04-10 14:02:00,
2013-04-10 07:13:00,49.0,-99.9,-100.00,South,185,2.0,-999.0,-999,-99.99,,,-99.99,,2013-04-10 14:13:00,
2013-04-10 07:20:00,50.0,-99.9,-100.00,SE,131,17.0,-999.0,-999,-99.99,,,-99.99,,2013-04-10 14:20:00,
2013-04-10 08:03:00,50.0,-99.9,-100.00,SE,131,17.0,-999.0,-999,-99.99,,,-99.99,,2013-04-10 15:03:00,
2013-04-10 08:12:00,50.0,-99.9,-100.00,SE,131,17.0,-999.0,-999,-99.99,,,-99.99,,2013-04-10 15:12:00,
2013-04-10 08:20:00,51.0,-99.9,-100.00,South,185,6.0,-999.0,-999,-99.99,,,-99.99,,2013-04-10 15:20:00,
2013-04-10 09:03:00,51.0,-99.9,-100.00,South,185,6.0,-999.0,-999,-99.99,,,-99.99,,2013-04-10 16:03:00,
2013-04-10 09:13:00,51.0,-99.9,-100.00,South,185,6.0,-999.0,-999,-99.99,,,-99.99,,2013-04-10 16:13:00,
2013-04-10 09:20:00,51.0,-99.9,-100.00,South,185,10.0,-999.0,-999,-99.99,,,-99.99,,2013-04-10 16:20:00,
2013-04-10 10:03:00,51.0,-99.9,-100.00,South,185,10.0,-999.0,-999,-99.99,,,-99.99,,2013-04-10 17:03:00,
2013-04-10 10:13:00,51.0,-99.9,-100.00,South,185,10.0,-999.0,-999,-99.99,,,-99.99,,2013-04-10 17:13:00,
2013-04-10 10:20:00,52.0,-99.9,-100.00,SSW,192,12.0,-999.0,-999,-99.99,,,-99.99,,2013-04-10 17:20:00,
2013-04-10 11:03:00,52.0,-99.9,-100.00,SSW,192,12.0,-999.0,-999,-99.99,,,-99.99,,2013-04-10 18:03:00,
2013-04-10 11:12:00,52.0,-99.9,-100.00,SSW,192,12.0,-999.0,-999,-99.99,,,-99.99,,2013-04-10 18:12:00,
2013-04-10 11:20:00,54.0,-99.9,-100.00,SSW,202,14.0,-999.0,-999,-99.99,,,-99.99,,2013-04-10 18:20:00,
2013-04-10 12:04:00,54.0,-99.9,-100.00,SSW,202,14.0,-999.0,-999,-99.99,,,-99.99,,2013-04-10 19:04:00,
2013-04-10 12:13:00,54.0,-99.9,-100.00,SSW,202,14.0,-999.0,-999,-99.99,,,-99.99,,2013-04-10 19:13:00,
2013-04-10 12:20:00,55.0,-99.9,-100.00,SSW,200,6.0,-999.0,-999,-99.99,,,-99.99,,2013-04-10 19:20:00,
2013-04-10 13:03:00,55.0,-99.9,-100.00,SSW,200,6.0,-999.0,-999,-99.99,,,-99.99,,2013-04-10 20:03:00,
2013-04-10 13:12:00,55.0,-99.9,-100.00,SSW,200,6.0,-999.0,-999,-99.99,,,-99.99,,2013-04-10 20:12:00,
2013-04-10 13:20:00,57.0,-99.9,-100.00,South,185,9.0,-999.0,-999,-99.99,,,-99.99,,2013-04-10 20:20:00,
2013-04-10 14:03:00,57.0,-99.9,-100.00,South,185,9.0,-999.0,-999,-99.99,,,-99.99,,2013-04-10 21:03:00,
2013-04-10 14:13:00,57.0,-99.9,-100.00,South,185,9.0,-999.0,-999,-99.99,,,-99.99,,2013-04-10 21:13:00,
2013-04-10 14:20:00,57.0,-99.9,-100.00,South,188,12.0,-999.0,-999,-99.99,,,-99.99,,2013-04-10 21:20:00,
2013-04-10 15:03:00,57.0,-99.9,-100.00,South,188,12.0,-999.0,-999,-99.99,,,-99.99,,2013-04-10 22:03:00,
2013-04-10 15:13:00,57.0,-99.9,-100.00,South,188,12.0,-999.0,-999,-99.99,,,-99.99,,2013-04-10 22:13:00,
2013-04-10 15:20:00,58.0,-99.9,-100.00,South,190,8.0,-999.0,-999,-99.99,,,-99.99,,2013-04-10 22:20:00,
2013-04-10 16:03:00,58.0,-99.9,-100.00,South,190,8.0,-999.0,-999,-99.99,,,-99.99,,2013-04-10 23:03:00,
2013-04-10 16:13:00,58.0,-99.9,-100.00,South,190,8.0,-999.0,-999,-99.99,,,-99.99,,2013-04-10 23:13:00,
2013-04-10 16:20:00,56.0,-99.9,-100.00,South,191,10.0,-999.0,-999,-99.99,,,-99.99,,2013-04-10 23:20:00,
2013-04-10 17:02:00,56.0,-99.9,-100.00,South,191,10.0,-999.0,-999,-99.99,,,-99.99,,2013-04-11 00:02:00,
2013-04-10 17:13:00,56.0,-99.9,-100.00,South,191,10.0,-999.0,-999,-99.99,,,-99.99,,2013-04-11 00:13:00,
2013-04-10 17:20:00,56.0,-99.9,-100.00,SSW,194,12.0,-999.0,-999,-99.99,,,-99.99,,2013-04-11 00:20:00,
2013-04-10 18:02:00,56.0,-99.9,-100.00,SSW,194,12.0,-999.0,-999,-99.99,,,-99.99,,2013-04-11 01:02:00,
2013-04-10 18:13:00,56.0,-99.9,-100.00,SSW,194,12.0,-999.0,-999,-99.99,,,-99.99,,2013-04-11 01:13:00,
2013-04-10 18:20:00,54.0,-99.9,-100.00,South,189,10.0,-999.0,-999,-99.99,,,-99.99,,2013-04-11 01:20:00,
2013-04-10 19:03:00,54.0,-99.9,-100.00,South,189,10.0,-999.0,-999,-99.99,,,-99.99,,2013-04-11 02:03:00,
2013-04-10 19:13:00,54.0,-99.9,-100.00,South,189,10.0,-999.0,-999,-99.99,,,-99.99,,2013-04-11 02:13:00,
2013-04-10 19:20:00,53.0,-99.9,-100.00,South,189,7.0,-999.0,-999,-99.99,,,-99.99,,2013-04-11 02:20:00,
2013-04-10 20:03:00,53.0,-99.9,-100.00,South,189,7.0,-999.0,-999,-99.99,,,-99.99,,2013-04-11 03:03:00,
2013-04-10 20:12:00,53.0,-99.9,-100.00,South,189,7.0,-999.0,-999,-99.99,,,-99.99,,2013-04-11 03:12:00,
2013-04-10 20:20:00,51.0,-99.9,-100.00,SSE,168,2.0,-999.0,-999,-99.99,,,-99.99,,2013-04-11 03:20:00,
2013-04-10 21:03:00,51.0,-99.9,-100.00,SSE,168,2.0,-999.0,-999,-99.99,,,-99.99,,2013-04-11 04:03:00,
2013-04-10 21:13:00,51.0,-99.9,-100.00,SSE,168,2.0,-999.0,-999,-99.99,,,-99.99,,2013-04-11 04:13:00,
2013-04-10 21:20:00,49.0,-99.9,-100.00,South,173,2.0,-999.0,-999,-99.99,,,-99.99,,2013-04-11 04:20:00,
2013-04-10 22:03:00,49.0,-99.9,-100.00,South,173,2.0,-999.0,-999,-99.99,,,-99.99,,2013-04-11 05:03:00,
2013-04-10 22:13:00,49.0,-99.9,-100.00,South,173,2.0,-999.0,-999,-99.99,,,-99.99,,2013-04-11 05:13:00,
2013-04-10 22:20:00,49.0,-99.9,-100.00,SE,135,5.0,-999.0,-999,-99.99,,,-99.99,,2013-04-11 05:20:00,
2013-04-10 23:02:00,49.0,-99.9,-100.00,SE,135,5.0,-999.0,-999,-99.99,,,-99.99,,2013-04-11 06:02:00,
2013-04-10 23:12:00,49.0,-99.9,-100.00,SE,135,5.0,-999.0,-999,-99.99,,,-99.99,,2013-04-11 06:12:00,
2013-04-10 23:20:00,48.0,-99.9,-100.00,ESE,114,7.0,-999.0,-999,-99.99,,,-99.99,,2013-04-11 06:20:00,